MSR714 OLBA-HECA

Flight info

Callsign MSR714
Flight time 1h 6m
Altitude 35000
Route KAD UG2 ELIKA N159 VELOX N71 LAKTO N307 MELDO A16 CVO
Aircraft A320/M-SDE3FGHIRWY/LB1

Departure

Time 2026-05-05 09:08
Airport Beirut Rafic Hariri International Airport (OLBA)

Arrival

Time 2026-05-05 10:14
Airport Cairo International Airport (HECA)
Time Latitude Longitude Altitude Speed Heading
2026-05-05 08:52 33.82302 35.49121 26 ft 0 kts 51°
2026-05-05 08:57 33.82290 35.49104 24 ft 4 kts 51°
2026-05-05 08:57 33.82273 35.49079 24 ft 4 kts 51°
2026-05-05 08:58 33.82259 35.49059 25 ft 4 kts 30°
2026-05-05 08:58 33.82245 35.49057 26 ft 4 kts 300°
2026-05-05 08:58 33.82236 35.49087 25 ft 4 kts 285°
2026-05-05 08:58 33.82232 35.49105 26 ft 0 kts 285°
2026-05-05 09:01 33.82238 35.49072 23 ft 8 kts 275°
2026-05-05 09:01 33.82192 35.49032 23 ft 10 kts 187°
2026-05-05 09:02 33.82111 35.49036 23 ft 13 kts 175°
2026-05-05 09:02 33.82015 35.49045 23 ft 15 kts 176°
2026-05-05 09:02 33.81901 35.49051 23 ft 17 kts 177°
2026-05-05 09:02 33.81773 35.49058 23 ft 20 kts 177°
2026-05-05 09:03 33.81641 35.49066 26 ft 19 kts 177°
2026-05-05 09:03 33.81577 35.49085 24 ft 9 kts 118°
2026-05-05 09:03 33.81602 35.49113 24 ft 10 kts 31°
2026-05-05 09:03 33.81680 35.49180 24 ft 15 kts 36°
2026-05-05 09:04 33.81772 35.49259 24 ft 17 kts 35°
2026-05-05 09:04 33.81875 35.49347 24 ft 19 kts 35°
2026-05-05 09:04 33.81992 35.49445 24 ft 22 kts 35°
2026-05-05 09:04 33.82121 35.49555 24 ft 24 kts 35°
2026-05-05 09:05 33.82260 35.49673 25 ft 21 kts 35°
2026-05-05 09:05 33.82373 35.49770 25 ft 20 kts 35°
2026-05-05 09:05 33.82479 35.49860 24 ft 19 kts 35°
2026-05-05 09:05 33.82596 35.49956 24 ft 21 kts 35°
2026-05-05 09:06 33.82696 35.50041 26 ft 17 kts 36°
2026-05-05 09:06 33.82766 35.50124 24 ft 13 kts 86°
2026-05-05 09:06 33.82718 35.50224 45 ft 14 kts 123°
2026-05-05 09:06 33.82644 35.50267 44 ft 14 kts 210°
2026-05-05 09:07 33.82585 35.50226 44 ft 0 kts 212°
2026-05-05 09:07 33.82536 35.50189 44 ft 34 kts 212°
2026-05-05 09:07 33.82131 35.49876 22 ft 101 kts 213°
2026-05-05 09:07 33.81392 35.49303 27 ft 150 kts 213°
2026-05-05 09:08 33.80501 35.48595 518 ft 154 kts 216°
2026-05-05 09:08 33.79662 35.47785 1195 ft 154 kts 223°
2026-05-05 09:08 33.78881 35.46834 1676 ft 170 kts 224°
2026-05-05 09:08 33.78139 35.45613 1957 ft 198 kts 248°
2026-05-05 09:09 33.78053 35.43853 2321 ft 226 kts 269°
2026-05-05 09:09 33.78171 35.41889 2968 ft 240 kts 271°
2026-05-05 09:09 33.78309 35.39879 3914 ft 243 kts 272°
2026-05-05 09:09 33.78450 35.37843 4701 ft 248 kts 272°
2026-05-05 09:10 33.78588 35.35805 5164 ft 249 kts 271°
2026-05-05 09:10 33.78726 35.33728 6113 ft 250 kts 271°
2026-05-05 09:10 33.78864 35.31608 7035 ft 252 kts 271°
2026-05-05 09:10 33.78997 35.29519 7841 ft 256 kts 271°
2026-05-05 09:11 33.79133 35.27366 8715 ft 260 kts 271°
2026-05-05 09:11 33.79267 35.25188 9547 ft 264 kts 271°
2026-05-05 09:11 33.79401 35.22958 10229 ft 274 kts 271°
2026-05-05 09:11 33.79542 35.20553 10482 ft 297 kts 271°
2026-05-05 09:12 33.79693 35.17986 10756 ft 316 kts 272°
2026-05-05 09:12 33.79855 35.15313 11385 ft 322 kts 272°
2026-05-05 09:12 33.80022 35.12620 12119 ft 324 kts 272°
2026-05-05 09:12 33.80191 35.09909 12899 ft 325 kts 273°
2026-05-05 09:13 33.80359 35.07197 13683 ft 327 kts 273°
2026-05-05 09:13 33.80526 35.04461 14382 ft 328 kts 273°
2026-05-05 09:13 33.80690 35.01719 15033 ft 330 kts 273°
2026-05-05 09:13 33.80853 34.98962 15696 ft 331 kts 274°
2026-05-05 09:14 33.81015 34.96197 16391 ft 332 kts 274°
2026-05-05 09:14 33.81178 34.93425 17049 ft 333 kts 274°
2026-05-05 09:14 33.81343 34.90639 17706 ft 335 kts 274°
2026-05-05 09:14 33.81509 34.87837 18375 ft 337 kts 274°
2026-05-05 09:15 33.81676 34.85014 18963 ft 340 kts 274°
2026-05-05 09:15 33.81842 34.82168 19554 ft 342 kts 274°
2026-05-05 09:15 33.82006 34.79302 20161 ft 344 kts 274°
2026-05-05 09:15 33.82171 34.76425 20755 ft 347 kts 274°
2026-05-05 09:16 33.82336 34.73523 21318 ft 349 kts 274°
2026-05-05 09:16 33.82505 34.70608 21911 ft 350 kts 275°
2026-05-05 09:16 33.82676 34.67671 22457 ft 353 kts 275°
2026-05-05 09:16 33.82842 34.64721 22982 ft 355 kts 275°
2026-05-05 09:17 33.83007 34.61753 23496 ft 357 kts 275°
2026-05-05 09:17 33.83168 34.58759 23925 ft 360 kts 274°
2026-05-05 09:17 33.83123 34.55735 24339 ft 363 kts 270°
2026-05-05 09:17 33.83032 34.52696 24751 ft 365 kts 270°
2026-05-05 09:18 33.82943 34.49637 25097 ft 368 kts 270°
2026-05-05 09:18 33.82854 34.46557 25456 ft 371 kts 270°
2026-05-05 09:18 33.82763 34.43443 25833 ft 373 kts 271°
2026-05-05 09:18 33.82671 34.40321 26208 ft 375 kts 271°
2026-05-05 09:19 33.82577 34.37176 26586 ft 377 kts 271°
2026-05-05 09:19 33.82482 34.34006 26962 ft 380 kts 271°
2026-05-05 09:19 33.82385 34.30832 27336 ft 382 kts 271°
2026-05-05 09:19 33.82287 34.27635 27710 ft 384 kts 271°
2026-05-05 09:20 33.82185 34.24416 28084 ft 386 kts 271°
2026-05-05 09:20 33.82082 34.21183 28448 ft 388 kts 271°
2026-05-05 09:20 33.81978 34.17927 28796 ft 390 kts 271°
2026-05-05 09:20 33.81874 34.14657 29142 ft 393 kts 271°
2026-05-05 09:21 33.81651 34.11378 29480 ft 398 kts 264°
2026-05-05 09:21 33.80935 34.08135 29806 ft 406 kts 254°
2026-05-05 09:21 33.79696 34.05057 30247 ft 413 kts 244°
2026-05-05 09:21 33.78057 34.02206 30680 ft 414 kts 241°
2026-05-05 09:22 33.76384 33.99385 31082 ft 413 kts 240°
2026-05-05 09:22 33.74726 33.96582 31499 ft 412 kts 240°
2026-05-05 09:22 33.73077 33.93788 31953 ft 410 kts 240°
2026-05-05 09:22 33.71431 33.90992 32405 ft 408 kts 240°
2026-05-05 09:23 33.69796 33.88218 32878 ft 406 kts 240°
2026-05-05 09:23 33.68168 33.85463 33372 ft 403 kts 239°
2026-05-05 09:23 33.66547 33.82724 33876 ft 401 kts 239°
2026-05-05 09:23 33.64937 33.80007 34308 ft 398 kts 239°
2026-05-05 09:24 33.63332 33.77303 34667 ft 397 kts 239°
2026-05-05 09:24 33.61726 33.74602 34916 ft 398 kts 239°
2026-05-05 09:24 33.60117 33.71895 34996 ft 400 kts 239°
2026-05-05 09:25 33.56878 33.66451 35006 ft 403 kts 239°
2026-05-05 09:25 33.53623 33.60979 35008 ft 404 kts 239°
2026-05-05 09:26 33.50350 33.55503 35015 ft 404 kts 239°
2026-05-05 09:26 33.47072 33.50021 35013 ft 404 kts 239°
2026-05-05 09:27 33.43798 33.44541 35013 ft 404 kts 239°
2026-05-05 09:27 33.40520 33.39070 35016 ft 404 kts 239°
2026-05-05 09:28 33.37235 33.33607 35018 ft 405 kts 239°
2026-05-05 09:28 33.33945 33.28141 35021 ft 405 kts 239°
2026-05-05 09:29 33.30661 33.22678 35006 ft 405 kts 239°
2026-05-05 09:29 33.27370 33.17208 35013 ft 405 kts 239°
2026-05-05 09:30 33.24067 33.11735 35010 ft 406 kts 239°
2026-05-05 09:30 33.20757 33.06269 35016 ft 407 kts 239°
2026-05-05 09:31 33.17471 33.00761 34994 ft 407 kts 240°
2026-05-05 09:31 33.14252 32.95209 35009 ft 407 kts 240°
2026-05-05 09:32 33.11034 32.89651 35015 ft 407 kts 240°
2026-05-05 09:32 33.07798 32.84108 35020 ft 408 kts 240°
2026-05-05 09:33 33.04546 32.78558 35018 ft 408 kts 240°
2026-05-05 09:33 33.01288 32.73018 35016 ft 408 kts 240°
2026-05-05 09:34 32.98037 32.67484 35031 ft 407 kts 240°
2026-05-05 09:34 32.94785 32.61964 35044 ft 407 kts 240°
2026-05-05 09:35 32.91538 32.56451 35052 ft 407 kts 240°
2026-05-05 09:35 32.86652 32.48172 35027 ft 407 kts 240°
2026-05-05 09:36 32.83392 32.42670 35049 ft 407 kts 240°
2026-05-05 09:36 32.80141 32.37173 35055 ft 406 kts 240°
2026-05-05 09:37 32.76932 32.31659 35053 ft 406 kts 241°
2026-05-05 09:37 32.73755 32.26168 35049 ft 406 kts 241°
2026-05-05 09:38 32.70526 32.20622 35047 ft 406 kts 241°
2026-05-05 09:38 32.67298 32.15104 35062 ft 406 kts 241°
2026-05-05 09:39 32.64072 32.09602 35074 ft 406 kts 241°
2026-05-05 09:39 32.60850 32.04094 35058 ft 406 kts 241°
2026-05-05 09:40 32.57643 31.98582 35037 ft 406 kts 241°
2026-05-05 09:40 32.54426 31.93077 35062 ft 405 kts 241°
2026-05-05 09:41 32.51208 31.87592 35072 ft 405 kts 241°
2026-05-05 09:41 32.47996 31.82122 35081 ft 404 kts 241°
2026-05-05 09:42 32.45305 31.77542 35082 ft 404 kts 241°
2026-05-05 09:42 32.42092 31.72076 35064 ft 405 kts 241°
2026-05-05 09:43 32.38878 31.66620 35065 ft 404 kts 241°
2026-05-05 09:43 32.35668 31.61179 35082 ft 403 kts 241°
2026-05-05 09:44 32.32458 31.55740 35085 ft 403 kts 241°
2026-05-05 09:44 32.29242 31.50305 35092 ft 403 kts 241°
2026-05-05 09:45 32.26024 31.44876 35066 ft 404 kts 242°
2026-05-05 09:45 32.22808 31.39459 35089 ft 403 kts 242°
2026-05-05 09:46 32.19577 31.34034 35096 ft 403 kts 242°
2026-05-05 09:46 32.16365 31.28632 35102 ft 403 kts 242°
2026-05-05 09:47 32.13142 31.23208 35099 ft 403 kts 242°
2026-05-05 09:47 32.09916 31.17806 35084 ft 403 kts 242°
2026-05-05 09:48 32.06639 31.12441 35086 ft 407 kts 237°
2026-05-05 09:48 32.04529 31.10140 35092 ft 421 kts 224°
2026-05-05 09:48 32.01862 31.08546 34912 ft 444 kts 205°
2026-05-05 09:49 31.98755 31.07934 34680 ft 462 kts 193°
2026-05-05 09:49 31.95547 31.07912 34449 ft 472 kts 185°
2026-05-05 09:49 31.92255 31.08223 34216 ft 476 kts 184°
2026-05-05 09:49 31.88949 31.08509 33963 ft 476 kts 185°
2026-05-05 09:50 31.85639 31.08785 33710 ft 477 kts 185°
2026-05-05 09:50 31.82324 31.09082 33439 ft 478 kts 184°
2026-05-05 09:50 31.79009 31.09408 33169 ft 479 kts 183°
2026-05-05 09:50 31.75688 31.09758 32907 ft 479 kts 183°
2026-05-05 09:51 31.72362 31.10122 32649 ft 480 kts 182°
2026-05-05 09:51 31.69037 31.10494 32391 ft 480 kts 182°
2026-05-05 09:51 31.65710 31.10867 32135 ft 480 kts 182°
2026-05-05 09:51 31.62382 31.11231 31843 ft 481 kts 183°
2026-05-05 09:52 31.59051 31.11588 31594 ft 481 kts 182°
2026-05-05 09:52 31.55713 31.11943 31345 ft 482 kts 182°
2026-05-05 09:52 31.52377 31.12308 31097 ft 483 kts 181°
2026-05-05 09:52 31.49037 31.12791 30854 ft 483 kts 179°
2026-05-05 09:53 31.45716 31.13394 30607 ft 483 kts 178°
2026-05-05 09:53 31.42412 31.14066 30376 ft 481 kts 177°
2026-05-05 09:53 31.39119 31.14758 30110 ft 479 kts 177°
2026-05-05 09:53 31.35849 31.15434 29820 ft 477 kts 177°
2026-05-05 09:54 31.32582 31.16082 29536 ft 474 kts 178°
2026-05-05 09:54 31.29337 31.16701 29262 ft 472 kts 178°
2026-05-05 09:54 31.26111 31.17300 28756 ft 466 kts 178°
2026-05-05 09:54 31.22924 31.17884 28134 ft 461 kts 178°
2026-05-05 09:55 31.19769 31.18461 27532 ft 457 kts 178°
2026-05-05 09:55 31.16638 31.19033 26930 ft 453 kts 177°
2026-05-05 09:55 31.13534 31.19604 26335 ft 450 kts 178°
2026-05-05 09:55 31.10443 31.20179 26095 ft 450 kts 178°
2026-05-05 09:56 31.07355 31.20756 26079 ft 450 kts 178°
2026-05-05 09:56 31.04265 31.21333 25949 ft 450 kts 178°
2026-05-05 09:56 31.01149 31.21914 24913 ft 458 kts 177°
2026-05-05 09:56 30.97989 31.22499 24062 ft 457 kts 177°
2026-05-05 09:57 30.94876 31.23081 22833 ft 453 kts 176°
2026-05-05 09:57 30.91768 31.23662 22167 ft 448 kts 176°
2026-05-05 09:57 30.88723 31.24231 21740 ft 438 kts 176°
2026-05-05 09:57 30.85732 31.24787 21246 ft 433 kts 176°
2026-05-05 09:58 30.82772 31.25334 20748 ft 428 kts 176°
2026-05-05 09:58 30.79845 31.25871 20229 ft 425 kts 176°
2026-05-05 09:58 30.76929 31.26405 19713 ft 423 kts 176°
2026-05-05 09:58 30.74028 31.26938 19167 ft 421 kts 176°
2026-05-05 09:59 30.71139 31.27470 18636 ft 419 kts 175°
2026-05-05 09:59 30.68264 31.28001 18034 ft 418 kts 175°
2026-05-05 09:59 30.65401 31.28530 17463 ft 415 kts 175°
2026-05-05 09:59 30.62562 31.29055 16890 ft 411 kts 175°
2026-05-05 10:00 30.59756 31.29571 16339 ft 407 kts 175°
2026-05-05 10:00 30.56970 31.30082 15775 ft 404 kts 175°
2026-05-05 10:00 30.54207 31.30590 15219 ft 400 kts 174°
2026-05-05 10:00 30.51465 31.31096 14655 ft 397 kts 174°
2026-05-05 10:01 30.48758 31.31595 14092 ft 393 kts 174°
2026-05-05 10:01 30.46066 31.32089 13481 ft 390 kts 173°
2026-05-05 10:01 30.43404 31.32579 12932 ft 385 kts 173°
2026-05-05 10:01 30.40775 31.32797 12494 ft 372 kts 189°
2026-05-05 10:02 30.38280 31.32313 12216 ft 358 kts 194°
2026-05-05 10:02 30.35860 31.31757 11780 ft 353 kts 195°
2026-05-05 10:02 30.33457 31.31191 11296 ft 350 kts 195°
2026-05-05 10:02 30.31080 31.30623 10810 ft 348 kts 195°
2026-05-05 10:03 30.28721 31.30046 10425 ft 343 kts 195°
2026-05-05 10:03 30.26433 31.29482 10302 ft 330 kts 195°
2026-05-05 10:03 30.24226 31.28941 10188 ft 319 kts 195°
2026-05-05 10:03 30.22085 31.28417 10089 ft 310 kts 195°
2026-05-05 10:04 30.20004 31.27910 9877 ft 303 kts 195°
2026-05-05 10:04 30.17952 31.27406 9557 ft 300 kts 195°
2026-05-05 10:04 30.15915 31.26905 9221 ft 298 kts 195°
2026-05-05 10:04 30.13899 31.26410 8904 ft 295 kts 195°
2026-05-05 10:05 30.11897 31.25916 8588 ft 293 kts 195°
2026-05-05 10:05 30.09912 31.25422 8274 ft 291 kts 195°
2026-05-05 10:05 30.07954 31.24880 7969 ft 287 kts 201°
2026-05-05 10:05 30.06117 31.24026 7659 ft 283 kts 211°
2026-05-05 10:06 30.04421 31.22894 7328 ft 281 kts 214°
2026-05-05 10:06 30.02762 31.21716 7018 ft 279 kts 214°
2026-05-05 10:06 30.01113 31.20538 6710 ft 278 kts 214°
2026-05-05 10:06 29.99483 31.19362 6360 ft 273 kts 215°
2026-05-05 10:07 29.97886 31.18195 5742 ft 271 kts 214°
2026-05-05 10:07 29.96228 31.17164 5130 ft 273 kts 199°
2026-05-05 10:07 29.94355 31.17008 4575 ft 273 kts 170°
2026-05-05 10:07 29.92688 31.17947 4170 ft 263 kts 133°
2026-05-05 10:08 29.91901 31.19702 4041 ft 238 kts 92°
2026-05-05 10:08 29.92205 31.21440 3799 ft 214 kts 51°
2026-05-05 10:08 29.93327 31.22424 3418 ft 201 kts 14°
2026-05-05 10:08 29.94636 31.22866 3256 ft 194 kts 18°
2026-05-05 10:09 29.95784 31.23677 3012 ft 196 kts 36°
2026-05-05 10:09 29.96765 31.24766 2762 ft 195 kts 43°
2026-05-05 10:09 29.97664 31.25911 2704 ft 187 kts 43°
2026-05-05 10:09 29.98485 31.26992 2694 ft 172 kts 44°
2026-05-05 10:10 29.99233 31.27983 2681 ft 156 kts 42°
2026-05-05 10:10 29.99922 31.28896 2707 ft 148 kts 44°
2026-05-05 10:10 30.00597 31.29788 2707 ft 147 kts 43°
2026-05-05 10:10 30.01267 31.30676 2710 ft 146 kts 44°
2026-05-05 10:11 30.01937 31.31564 2683 ft 148 kts 45°
2026-05-05 10:11 30.02612 31.32461 2545 ft 147 kts 47°
2026-05-05 10:11 30.03283 31.33352 2382 ft 147 kts 45°
2026-05-05 10:11 30.03946 31.34233 2198 ft 146 kts 45°
2026-05-05 10:12 30.04606 31.35109 2011 ft 144 kts 44°
2026-05-05 10:12 30.05258 31.35976 1815 ft 142 kts 46°
2026-05-05 10:12 30.05912 31.36846 1625 ft 144 kts 45°
2026-05-05 10:12 30.06565 31.37714 1438 ft 142 kts 46°
2026-05-05 10:13 30.07212 31.38574 1249 ft 143 kts 45°
2026-05-05 10:13 30.07866 31.39444 1045 ft 144 kts 43°
2026-05-05 10:13 30.08524 31.40313 833 ft 143 kts 41°
2026-05-05 10:13 30.09181 31.41167 641 ft 143 kts 46°
2026-05-05 10:14 30.09819 31.42042 473 ft 142 kts 45°
2026-05-05 10:14 30.10411 31.42825 449 ft 106 kts 49°
2026-05-05 10:14 30.10781 31.43321 448 ft 49 kts 48°
2026-05-05 10:14 30.10974 31.43501 449 ft 29 kts 25°
2026-05-05 10:15 30.11147 31.43594 449 ft 19 kts 25°
2026-05-05 10:15 30.11231 31.43551 449 ft 14 kts 296°
2026-05-05 10:15 30.11240 31.43434 450 ft 16 kts 283°
2026-05-05 10:15 30.11322 31.43340 450 ft 18 kts 319°
2026-05-05 10:16 30.11424 31.43237 449 ft 21 kts 319°
2026-05-05 10:16 30.11558 31.43107 428 ft 29 kts 320°
2026-05-05 10:16 30.11704 31.42962 413 ft 28 kts 319°
2026-05-05 10:16 30.11840 31.42825 406 ft 28 kts 319°
2026-05-05 10:17 30.11989 31.42677 390 ft 32 kts 319°
2026-05-05 10:17 30.12146 31.42519 388 ft 29 kts 318°
2026-05-05 10:17 30.12188 31.42381 389 ft 19 kts 235°
2026-05-05 10:17 30.12095 31.42258 389 ft 22 kts 230°
2026-05-05 10:18 30.11989 31.42117 389 ft 24 kts 227°
2026-05-05 10:18 30.11866 31.41963 389 ft 27 kts 228°
2026-05-05 10:18 30.11757 31.41819 389 ft 24 kts 230°
2026-05-05 10:18 30.11643 31.41663 389 ft 27 kts 229°
2026-05-05 10:19 30.11521 31.41497 389 ft 24 kts 229°
2026-05-05 10:19 30.11415 31.41360 389 ft 17 kts 227°
2026-05-05 10:19 30.11412 31.41233 389 ft 18 kts 277°
2026-05-05 10:19 30.11353 31.41115 389 ft 9 kts 247°
2026-05-05 10:20 30.11387 31.41065 389 ft 8 kts 320°
2026-05-05 10:20 30.11405 31.41048 389 ft 1 kts 319°
2026-05-05 10:20 30.11406 31.41048 389 ft 0 kts 319°